Location: Holyhead Bay
(53.3667°N, 4.6667°W)
Time: 19:52:22
(UTC+00:00)

Cosmos 1980 Rocket - Pass Details

Date: 24 November 2020
Orbit: 829 x 850 km, 71.0° (Epoch: 16 January)

Event Time Altitude Azimuth Distance (km) Brightness Sun altitude
Rises 19:27:10 0° 315° (NW) 3,382 6.0 -28.6°
Reaches altitude 10° 19:31:00 10° 341° (NNW) 2,449 4.8 -29.2°
Enters shadow 19:33:07 13° 3° (N) 2,212 4.4 -29.5°
